Regional Weather Roundup
Issued by NWS Newport/Morehead, NC

Current Version | Previous Version | Graphics & Text | Print | Product List | Glossary Off
Versions: 1 2 3 4 5 6 7 8 9 10 11 12 13 14 15 16 17 18 19 20 21 22 23 24 25 26 27 28 29 30 31 32 33 34 35 36 37 38 39 40 41 42 43 44 45 46 47 48 49 50

000
ASUS42 KMHX 281312
RWRMHX
WEATHER ROUNDUP FOR EASTERN NORTH CAROLINA
NATIONAL WEATHER SERVICE NEWPORT/MOREHEAD CITY NC
900 AM EDT SAT MAR 28 2015

NOTE: "FAIR" INDICATES FEW OR NO CLOUDS BELOW 12,000 FEET
WITH NO SIGNIFICANT WEATHER AND/OR OBSTRUCTIONS TO VISIBILITY

NCZ015>017-031-032-045>047-102-103-281400-
NORTH COAST

CITY           SKY/WX    TMP DP  RH WIND       PRES   REMARKS
EDENTON        CLOUDY    41  32  70 N14       29.96R
ELIZABETH CITY CLOUDY    41  32  70 NW14G20   29.94R
KITTY HAWK     MOSUNNY   42  31  66 N9G20     29.91R
MANTEO         MOSUNNY   41  32  68 NW9G21    29.93R

$$

NCZ045>047-081-094-103-104-281400-
CENTRAL COAST

CITY           SKY/WX    TMP DP  RH WIND       PRES   REMARKS
FRISCO         CLOUDY    44  34  67 N8        29.92R
SWANQUARTER      N/A     43 N/A N/A N7G20     29.91R

$$

NCZ095-097-098-100-101-281400-
SOUTHERN COAST

CITY           SKY/WX    TMP DP  RH WIND       PRES   REMARKS
BEAUFORT       MOSUNNY   44  38  79 NW18      29.96R
CEDAR ISLAND     N/A     45 N/A N/A N15G26    29.97S
JACKSONVILLE   CLOUDY    40  36  86 NW12      30.00R
PINEY ISLAND   SUNNY    N/A N/A N/A NW17      29.95R
WILMINGTON     PTSUNNY   42  39  89 N8        29.99S


$$

NCZ011>013-027>030-043-044-078>080-089-090>093-098-281400-
COASTAL PLAIN

CITY           SKY/WX    TMP DP  RH WIND       PRES   REMARKS
AHOSKIE        LGT RAIN  35  32  90 NW6       29.99R
CLINTON        PTSUNNY   43  34  71 N6        30.01R
ELIZABETHTOWN  CLOUDY    42  38  87 NW6       30.01R
GOLDSBORO      PTSUNNY   40  39  99 N6        29.98R
GREENVILLE     CLOUDY    37  34  87 NW3       30.00R
HAVELOCK       CLOUDY    43  36  76 NW12      29.97R
KENANSVILLE    SUNNY     41  37  84 CALM      30.01R
KINSTON        PTSUNNY   39  36  87 CALM      30.00R
NEW BERN       CLOUDY    42  34  73 NW12      29.99R
RICHLANDS      CLOUDY    39  34  81 CALM      30.01R
ROCKY MOUNT    CLOUDY    38  34  85 NW13      30.00R
WASHINGTON     MOSUNNY   39  35  84 NW6       29.98R
WHITEVILLE     PTSUNNY   44  37  78 N6        30.01R

$$

AMZ130-135-150-152-154-156-158-170-250-252-270-ANZ085-086-088-633-658-670-281400-
MARINE OBSERVATIONS

STATION/POSITION TIME  TEMP    WIND        PRES    WAVE   SWELL
                       AIR SEA DIR/SP/G            HT/PER HT/PER
                 (UTC) (F)     (DEG/KT/KT) (MB)    (FT/S) (FT/S)
CHESAPEAKE LIGHT 1200   39     340/ 27/ 29 1012.3
64 E VA BEACH    1250   43 56  330/ 25/ 31 1010.2    9/ 8   3/13
DUCK             1200   41 41  340/ 20/ 22 1011.0
2 E DUCK         1211      41                N/A     6/ 8   2/11
10 NE DUCK       NOT AVBL
OREGON INLET     1200   41 45  330/ 12/ 17 1012.3
HATTERAS CG      1200   44 53  330/ 18/ 22 1012.7
CAPE LOOKOUT     1300   44     330/ 15/ 19 1014.0
BEAUFORT LAB     1200   42 56  320/  7/ 11 1013.1
27 SE WRIGHTSVLE 1200   44 64  360/ 17/ 21 1015.5
5 SE WRIGHTSVLE  1200   44 56  340/ 17/ 21 1014.9
225 S CAPE HAT   1250   62 68  300/ 27/ 35 1012.0   13/ 9
41 SE CHARLESTON 1250   53 68  310/ 16/ 19 1015.9    6/ 7   2/13

$$



USA.gov is the U.S. government's official web portal to all federal, state and local government web resources and services.